Location: LDNL
(36.4545°S, 141.6685°E)
Time: 19:14:17
(UTC+10:00)

A-11 Canister half - Pass Details

Date: 02 February 2022
Orbit: 1527 x 1682 km, 47.3° (Epoch: 20 May)

Event Time Altitude Azimuth Distance (km) Brightness Sun altitude
Rises 05:52:03 0° 238° (WSW) 4,890 11.4 -11.3°
Reaches altitude 10° 05:55:19 10° 242° (WSW) 3,880 10.8 -10.8°
Maximum altitude 06:04:47 54° 315° (NW) 1,885 9.1 -9.1°
Drops below altitude 10° 06:13:55 10° 29° (NNE) 3,737 11.1 -7.5°
Sets 06:17:01 0° 33° (NNE) 4,700 11.6 -7.0°
